Location: Oakley
(37.9974°N, 121.7125°W)
Time: 19:26:24
(UTC+00:00)

Cosmos 2333 Rocket - Pass Details

Date: 13 February 2026
Orbit: 840 x 862 km, 70.8° (Epoch: 10 March)

Event Time Altitude Azimuth Distance (km) Brightness Sun altitude
Rises 14:14:01 0° 192° (SSW) 3,423 5.3 -9.5°
Reaches altitude 10° 14:16:29 10° 189° (S) 2,489 4.7 -9.0°
Maximum altitude 14:22:08 64° 109° (ESE) 947 2.8 -7.9°
Drops below altitude 10° 14:27:49 10° 29° (NNE) 2,496 4.9 -6.8°
Sets 14:30:17 0° 26° (NNE) 3,433 5.6 -6.3°
